Regional Weather Roundup
Issued by NWS

Home | Current Version | Previous Version | Graphics & Text | Print | Product List | Glossary On
Versions: 1 2 3 4 5 6 7 8 9 10 11 12 13 14 15 16 17 18 19 20 21 22 23 24 25 26 27 28 29 30 31 32 33 34 35 36 37 38 39 40 41 42 43 44 45 46 47 48 49 50
000
ASUS43 KOAX 242210
RWRNE

WEATHER ROUNDUP FOR NEBRASKA
NATIONAL WEATHER SERVICE OMAHA NE
500 PM CDT THU APR 24 2014

NOTES: SATELLITE DATA IS BEING USED TO AUGMENT CLOUD COVER ABOVE
       12000 FEET.
       "FAIR" INDICATES FEW OR NO CLOUDS BELOW 12,000 FEET WITH NO
       SIGNIFICANT WEATHER AND/OR OBSTRUCTIONS TO VISIBILITY.

  * THESE STATIONS DO NOT REPORT WEATHER SUCH AS RAIN...SNOW OR FOG.

NEZ001>004-019>022-054>056-242300-
NEBRASKA PANHANDLE

CITY           SKY/WX    TMP DP  RH WIND       PRES   REMARKS
SCOTTSBLUFF    MOSUNNY   64  18  17 W10       29.83F
ALLIANCE       MOSUNNY   64  15  15 NW13G20   29.82F
CHADRON        SUNNY     66  20  17 NW13G22   29.79F
KIMBALL        SUNNY     64  13  14 NW10      29.84F
SIDNEY         PTSUNNY   65  16  15 NW14G24   29.86F
$$

NEZ057>060-069>072-079>082-242300-
SOUTHWEST NEBRASKA

CITY           SKY/WX    TMP DP  RH WIND       PRES   REMARKS
NORTH PLATTE   MOSUNNY   67  26  21 NW14      29.81F
IMPERIAL       PTSUNNY   69  10  10 W14G20    29.84F
LEXINGTON      SUNNY     71  17  12 NW15G22   29.80F
MCCOOK         SUNNY     68  12  11 NW18G26   29.83F
OGALLALA       PTSUNNY   66  16  14 W12G17    29.84F
$$

NEZ005>010-023>029-035>040-094-242300-
NORTH CENTRAL NEBRASKA

CITY           SKY/WX    TMP DP  RH WIND       PRES   REMARKS
VALENTINE      SUNNY     68  19  15 NW9       29.77F
AINSWORTH      SUNNY     68  17  14 NW18G25   29.77F
BROKEN BOW     SUNNY     70  13  11 NW16      29.78F
O`NEILL        SUNNY     69  11  10 NW23G31   29.76F
ORD            SUNNY     70  20  15 NW18G32   29.76F
THEDFORD       SUNNY     70  14  11 W12G21    29.80F
$$

NEZ041-046>049-061>064-073>077-083>087-242300-
SOUTH CENTRAL NEBRASKA

CITY           SKY/WX    TMP DP  RH WIND       PRES   REMARKS
GRAND ISLAND   SUNNY     70  24  17 NW16G25   29.78F
AURORA         MOSUNNY   69  33  25 NW17      29.77F
HASTINGS       SUNNY     69  25  19 N14       29.79F
HEBRON         MOSUNNY   69  28  21 NW14      29.79R
HOLDREGE       SUNNY     69  19  15 N12G18    29.80F
KEARNEY *      SUNNY     70  21  16 NW14      29.79F
YORK           MOSUNNY   66  36  32 NW21      29.76F
$$

NEZ011>018-030>034-042>045-242300-
NORTHEAST NEBRASKA

CITY           SKY/WX    TMP DP  RH WIND       PRES   REMARKS
NORFOLK        SUNNY     69  24  18 NW22G31   29.72F
ALBION         SUNNY     68  21  17 N18G25    29.75S
BLAIR          CLOUDY    63  42  46 N13G21    29.71S
COLUMBUS *     MOSUNNY   66  36  32 NW23      29.75S
FREMONT        PTSUNNY   65  37  35 NW10      29.73F
TEKAMAH        CLOUDY    67  41  38 N15       29.71F
$$

NEZ050>053-065>068-078-088>093-242300-
SOUTHEAST NEBRASKA

CITY           SKY/WX    TMP DP  RH WIND       PRES   REMARKS
LINCOLN        CLOUDY    67  37  33 N12       29.75F
OMAHA EPPLEY   CLOUDY    63  47  55 N10       29.72F
BEATRICE       CLOUDY    64  39  39 N15       29.77S
FALLS CITY     CLOUDY    59  46  62 NW16G23   29.75R
NEBRASKA CITY  CLOUDY    60  48  62 N10       29.74S
PLATTSMOUTH    CLOUDY    63  42  46 N13       29.73S
$$

NEZ044-045-051>053-067-242300-
OMAHA AREA

CITY           SKY/WX    TMP DP  RH WIND       PRES   REMARKS
OMAHA EPPLEY   CLOUDY    63  47  55 N10       29.72F
BLAIR          CLOUDY    63  42  46 N13G21    29.71S
FREMONT        PTSUNNY   65  37  35 NW10      29.73F
MILLARD        CLOUDY    65  39  38 N8G17     29.72S
OFFUTT AFB     CLOUDY    63  46  53 N10G18    29.73S
PLATTSMOUTH    CLOUDY    63  42  46 N13       29.73S
WAHOO          FAIR      65  36  34 N15       29.73S
$$



USA.gov is the U.S. government's official web portal to all federal, state and local government web resources and services.